User: anonymous   Login
Location: Ostrava
(49.8330°N, 18.2830°E)
Time: 18:32:44
(UTC+02:00)
Language:

Cosmos 2219 Rocket - Orbit

View from above orbital plane
View from above orbital plane
View from above satellite
View from above satellite

Ground track
Ground track

The orbit data is extracted from the following two-line orbital elements,

1 22220U 92076B   17262.95758799 -.00000256 +00000-0 -10486-3 0  9996
2 22220 070.9992 219.7597 0011096 136.0678 280.2299 14.16419017283867
Epoch (UTC): 19 September 2017 22:58:55
Eccentricity: 0.0011096
inclination: 70.9992°
perigee height: 829 km
apogee height: 845 km
right ascension of ascending node: 219.7597°
argument of perigee: 136.0678°
revolutions per day: 14.16419017
mean anomaly at epoch: 280.2299°
orbit number at epoch: 28386

The dashed part of the orbit path shows where the satellite is in the earth's shadow,  

DLR